When you browse on this site, cookies collect data to enhance your experience and personalize the content and advertising you see.
Visit our Privacy Policy to learn more. By continuing to use the site, you agree to this use of cookies and data.
EN

Hourly Weather Hannover

Today, 12 August, Wednesday

Time Temperature Precipitation Wind Pressure Humidity
00:00 +23°C° 0 mm 4 mps 758 mmHg 64%
01:00 +22°C° 0 mm 4 mps 758 mmHg 67%
02:00 +22°C° 0 mm 3 mps 758 mmHg 70%
03:00 +21°C° 0 mm 3 mps 758 mmHg 73%
04:00 +21°C° 0 mm 3 mps 758 mmHg 76%
05:00 +21°C° 0 mm 4 mps 758 mmHg 76%
06:00 +22°C° 0 mm 4 mps 758 mmHg 75%
07:00 +22°C° 0 mm 4 mps 758 mmHg 75%
08:00 +25°C° 0 mm 5 mps 757 mmHg 68%
09:00 +27°C° 0 mm 5 mps 757 mmHg 62%
10:00 +28°C° 0 mm 6 mps 757 mmHg 55%
11:00 +29°C° 0 mm 6 mps 757 mmHg 52%
12:00 +30°C° 0 mm 6 mps 757 mmHg 49%
13:00 +32°C° 0 mm 6 mps 757 mmHg 46%
14:00 +32°C° 0 mm 6 mps 757 mmHg 45%
15:00 +32°C° 0 mm 6 mps 756 mmHg 45%
16:00 +32°C° 0 mm 6 mps 756 mmHg 45%
17:00 +30°C° 0.1 mm 5 mps 756 mmHg 49%
18:00 +29°C° 0.1 mm 4 mps 756 mmHg 54%
19:00 +27°C° 0.1 mm 4 mps 756 mmHg 58%
20:00 +26°C° 0.2 mm 4 mps 756 mmHg 61%
21:00 +25°C° 0.2 mm 4 mps 756 mmHg 64%
22:00 +23°C° 0.2 mm 4 mps 756 mmHg 67%
23:00 +23°C° 0.1 mm 4 mps 756 mmHg 69%

Tomorrow, 13 August, Thursday

Time Temperature Precipitation Wind Pressure Humidity
00:00 +24°C° 0.1 mm 3 mps 755 mmHg 71%
01:00 +22°C° 0.1 mm 3 mps 755 mmHg 74%
02:00 +22°C° 0.1 mm 3 mps 755 mmHg 77%
03:00 +21°C° 0.1 mm 3 mps 755 mmHg 81%
04:00 +21°C° 0.1 mm 3 mps 754 mmHg 84%
05:00 +21°C° 0.1 mm 3 mps 754 mmHg 83%
06:00 +22°C° 0.1 mm 3 mps 754 mmHg 83%
07:00 +22°C° 0.1 mm 3 mps 754 mmHg 82%
08:00 +25°C° 0 mm 3 mps 754 mmHg 76%
09:00 +27°C° 0 mm 3 mps 754 mmHg 70%
10:00 +28°C° 0 mm 3 mps 754 mmHg 64%
11:00 +30°C° 0 mm 3 mps 754 mmHg 60%
12:00 +31°C° 0 mm 3 mps 754 mmHg 56%
13:00 +33°C° 0 mm 3 mps 753 mmHg 52%
14:00 +32°C° 0.2 mm 2 mps 753 mmHg 52%
15:00 +32°C° 0.2 mm 2 mps 753 mmHg 52%
16:00 +32°C° 0.2 mm 2 mps 753 mmHg 52%
17:00 +31°C° 1.4 mm 2 mps 753 mmHg 60%
18:00 +29°C° 1.4 mm 2 mps 753 mmHg 67%
19:00 +27°C° 1.4 mm 2 mps 752 mmHg 75%
20:00 +26°C° 2.4 mm 2 mps 753 mmHg 79%
21:00 +25°C° 2.4 mm 2 mps 753 mmHg 83%
22:00 +23°C° 2.4 mm 2 mps 754 mmHg 86%
23:00 +23°C° 1.3 mm 2 mps 754 mmHg 87%

Day after tomorrow, 14 August, Friday

Time Temperature Precipitation Wind Pressure Humidity
00:00 +23°C° 1.3 mm 2 mps 754 mmHg 88%
01:00 +23°C° 1.3 mm 1 mps 754 mmHg 89%
02:00 +23°C° 0.4 mm 1 mps 754 mmHg 90%
03:00 +22°C° 0.4 mm 1 mps 754 mmHg 91%
04:00 +22°C° 0.4 mm 1 mps 754 mmHg 92%
05:00 +23°C° 0.1 mm 1 mps 754 mmHg 90%
06:00 +23°C° 0.1 mm 1 mps 754 mmHg 88%
07:00 +23°C° 0.1 mm 1 mps 754 mmHg 86%
08:00 +25°C° 0.7 mm 1 mps 754 mmHg 80%
09:00 +26°C° 0.7 mm 2 mps 754 mmHg 74%
10:00 +27°C° 0.7 mm 3 mps 754 mmHg 68%
11:00 +28°C° 1.1 mm 2 mps 754 mmHg 65%
12:00 +28°C° 1.1 mm 2 mps 754 mmHg 62%
13:00 +29°C° 1.1 mm 2 mps 754 mmHg 59%
14:00 +29°C° 1.2 mm 1 mps 753 mmHg 59%
15:00 +29°C° 1.2 mm 1 mps 753 mmHg 59%
16:00 +29°C° 1.2 mm 1 mps 753 mmHg 59%
17:00 +28°C° 1.4 mm 1 mps 753 mmHg 64%
18:00 +27°C° 1.4 mm 1 mps 753 mmHg 69%
19:00 +26°C° 1.4 mm 1 mps 753 mmHg 74%
20:00 +25°C° 1.1 mm 1 mps 754 mmHg 78%
21:00 +24°C° 1.1 mm 1 mps 754 mmHg 82%
22:00 +23°C° 1.1 mm 1 mps 754 mmHg 86%
23:00 +23°C° 0.5 mm 1 mps 754 mmHg 86%

15 August, Saturday

Time Temperature Precipitation Wind Pressure Humidity
00:00 +22°C° 0.5 mm 1 mps 754 mmHg 87%
01:00 +22°C° 0.5 mm 1 mps 754 mmHg 88%
02:00 +22°C° 0.4 mm 1 mps 754 mmHg 89%
03:00 +21°C° 0.4 mm 1 mps 754 mmHg 90%
04:00 +21°C° 0.4 mm 1 mps 754 mmHg 90%
05:00 +21°C° 0.5 mm 1 mps 754 mmHg 90%
06:00 +22°C° 0.5 mm 1 mps 755 mmHg 89%
07:00 +22°C° 0.5 mm 1 mps 755 mmHg 88%
08:00 +23°C° 0.1 mm 1 mps 755 mmHg 84%
09:00 +24°C° 0.1 mm 1 mps 755 mmHg 80%
10:00 +25°C° 0.1 mm 1 mps 755 mmHg 76%
11:00 +26°C° 0.4 mm 1 mps 755 mmHg 74%
12:00 +26°C° 0.4 mm 2 mps 755 mmHg 71%
13:00 +27°C° 0.4 mm 2 mps 755 mmHg 69%
14:00 +27°C° 0.2 mm 3 mps 755 mmHg 70%
15:00 +27°C° 0.2 mm 3 mps 755 mmHg 72%
16:00 +27°C° 0.2 mm 4 mps 755 mmHg 73%
17:00 +26°C° 0.2 mm 4 mps 755 mmHg 75%
18:00 +25°C° 0.2 mm 3 mps 755 mmHg 77%
19:00 +25°C° 0.2 mm 3 mps 755 mmHg 79%
20:00 +24°C° 0 mm 3 mps 755 mmHg 80%
21:00 +23°C° 0 mm 2 mps 755 mmHg 80%
22:00 +23°C° 0 mm 2 mps 755 mmHg 81%
23:00 +21°C° 0 mm 2 mps 755 mmHg 81%

16 August, Sunday

Time Temperature Precipitation Wind Pressure Humidity
00:00 +20°C° 0 mm 2 mps 755 mmHg 80%
01:00 +20°C° 0 mm 2 mps 755 mmHg 80%
02:00 +19°C° 0 mm 2 mps 755 mmHg 81%
03:00 +19°C° 0 mm 2 mps 755 mmHg 82%
04:00 +19°C° 0 mm 2 mps 755 mmHg 82%
05:00 +19°C° 0 mm 3 mps 755 mmHg 81%
06:00 +19°C° 0 mm 3 mps 755 mmHg 80%
07:00 +20°C° 0 mm 3 mps 755 mmHg 79%
08:00 +21°C° 0 mm 4 mps 755 mmHg 74%
09:00 +23°C° 0 mm 4 mps 755 mmHg 69%
10:00 +26°C° 0 mm 5 mps 755 mmHg 64%
11:00 +27°C° 0 mm 5 mps 755 mmHg 62%
12:00 +28°C° 0 mm 5 mps 755 mmHg 59%
13:00 +29°C° 0 mm 6 mps 755 mmHg 56%
14:00 +29°C° 0.1 mm 6 mps 754 mmHg 55%
15:00 +29°C° 0.1 mm 6 mps 754 mmHg 54%
16:00 +29°C° 0.1 mm 6 mps 754 mmHg 53%
17:00 +27°C° 0 mm 5 mps 754 mmHg 57%
18:00 +26°C° 0 mm 4 mps 754 mmHg 61%
19:00 +25°C° 0 mm 4 mps 754 mmHg 64%
20:00 +23°C° 0 mm 4 mps 754 mmHg 66%
21:00 +22°C° 0 mm 4 mps 754 mmHg 67%
22:00 +21°C° 0 mm 4 mps 754 mmHg 68%
23:00 +21°C° 0 mm 4 mps 754 mmHg 71%

17 August, Monday

Time Temperature Precipitation Wind Pressure Humidity
00:00 +20°C° 0 mm 3 mps 754 mmHg 73%
01:00 +20°C° 0 mm 3 mps 754 mmHg 76%
02:00 +19°C° 0.1 mm 3 mps 754 mmHg 78%
03:00 +19°C° 0.1 mm 3 mps 754 mmHg 80%
04:00 +19°C° 0.1 mm 3 mps 754 mmHg 82%
05:00 +19°C° 0.1 mm 3 mps 754 mmHg 82%
06:00 +19°C° 0.1 mm 3 mps 754 mmHg 81%
07:00 +20°C° 0.1 mm 3 mps 754 mmHg 80%
08:00 +21°C° 0 mm 3 mps 754 mmHg 76%
09:00 +24°C° 0 mm 3 mps 754 mmHg 72%
10:00 +25°C° 0 mm 3 mps 754 mmHg 68%
11:00 +26°C° 0 mm 2 mps 754 mmHg 65%
12:00 +27°C° 0 mm 2 mps 754 mmHg 62%
13:00 +28°C° 0 mm 2 mps 754 mmHg 59%
14:00 +28°C° 0.8 mm 2 mps 753 mmHg 60%
15:00 +28°C° 0.8 mm 2 mps 753 mmHg 62%
16:00 +28°C° 0.8 mm 2 mps 753 mmHg 64%
17:00 +26°C° 1.8 mm 2 mps 753 mmHg 72%
18:00 +25°C° 1.8 mm 2 mps 753 mmHg 79%
19:00 +22°C° 1.8 mm 3 mps 754 mmHg 87%
20:00 +22°C° 0.7 mm 3 mps 754 mmHg 88%
21:00 +21°C° 0.7 mm 3 mps 754 mmHg 89%
22:00 +21°C° 0.7 mm 3 mps 754 mmHg 90%
23:00 +20°C° 0.2 mm 3 mps 754 mmHg 90%
Show more